This is the latest recevied weather packets stored in our database for station/object SR9SMR. If no packets are shown the sender has not sent any weather packets the latest 1 day(s).
| Time | Temp. | Humidity | Pressure | Rain* | Wind** | Luminosity | Snow |
|---|---|---|---|---|---|---|---|
| 1777993932 | 18.33° C | 100% | 894.6 hPa | - | 8.94 m/s, 206° | - | - |
| 1777993818 | 18.33° C | 100% | 894.6 hPa | - | 9.83 m/s, 203° | - | - |
| 1777993706 | 18.33° C | 100% | 894.4 hPa | - | 9.83 m/s, 215° | - | - |
| 1777993630 | 18.33° C | 100% | 894.5 hPa | - | 8.94 m/s, 215° | - | - |
| 1777993576 | 18.33° C | 100% | 894.5 hPa | - | 8.05 m/s, 211° | - | - |
| 1777993323 | 18.33° C | 100% | 895 hPa | - | 9.39 m/s, 214° | - | - |
| 1777993021 | 18.33° C | 100% | 894.7 hPa | - | 9.83 m/s, 210° | - | - |
| 1777992818 | 18.33° C | 100% | 894.5 hPa | - | 9.83 m/s, 214° | - | - |
| 1777992716 | 18.33° C | 100% | 894.8 hPa | - | 8.94 m/s, 213° | - | - |
| 1777992414 | 18.33° C | 100% | 894.8 hPa | - | 10.28 m/s, 210° | - | - |
| 1777992108 | 18.33° C | 100% | 894.8 hPa | - | 10.28 m/s, 218° | - | - |
| 1777991805 | 18.33° C | 100% | 894.8 hPa | - | 10.28 m/s, 221° | - | - |
| 1777991502 | 18.33° C | 100% | 894.5 hPa | - | 10.28 m/s, 211° | - | - |
| 1777991200 | 18.33° C | 100% | 894.9 hPa | - | 9.83 m/s, 223° | - | - |
| 1777990897 | 18.33° C | 100% | 895 hPa | - | 9.39 m/s, 217° | - | - |
| 1777990593 | 18.33° C | 100% | 895 hPa | - | 11.18 m/s, 218° | - | - |
| 1777990357 | 18.33° C | 100% | 894.8 hPa | - | 9.83 m/s, 213° | - | - |
| 1777990291 | 18.33° C | 100% | 895 hPa | - | 9.83 m/s, 210° | - | - |
| 1777989989 | 18.33° C | 100% | 895 hPa | - | 9.83 m/s, 215° | - | - |
| 1777989686 | 18.33° C | 100% | 894.8 hPa | - | 9.83 m/s, 210° | - | - |
| 1777989631 | 18.33° C | 100% | 894.8 hPa | - | 9.83 m/s, 207° | - | - |
| 1777989381 | 18.33° C | 100% | 895 hPa | - | 9.39 m/s, 206° | - | - |
| 1777989078 | 18.33° C | 100% | 895.1 hPa | - | 9.83 m/s, 212° | - | - |
| 1777988775 | 18.89° C | 100% | 895.4 hPa | - | 9.83 m/s, 224° | - | - |
| 1777988472 | 18.33° C | 100% | 895.2 hPa | - | 10.28 m/s, 213° | - | - |
* Rain since midnight (hover to see other rain measurements)
** Current wind speed in m/s (hover to see current wind gust speed)